Time,TemperatureF,DewpointF,PressureIn,WindDirection,WindDirectionDegrees,WindSpeedMPH,WindSpeedGustMPH,Humidity,HourlyPrecipIn,Conditions,Clouds,dailyrainin,SolarRadiationWatts/m^2,SoftwareType,DateUTC
2013-04-01 00:00:00,45.7,42.6,29.68,NNE,20,3.2,6.9,89,0.03,CLR,,0.05,0.0,WeatherDisplay:10.37,2013-04-01 04:00:00,
2013-04-01 00:05:00,45.7,42.6,29.68,NNE,20,5.2,13.8,89,0.03,RA,,0.00,0.0,WeatherDisplay:10.37,2013-04-01 04:05:00,
2013-04-01 00:10:00,45.7,42.3,29.68,NNE,20,1.7,9.2,88,0.03,CLR,,0.00,0.0,WeatherDisplay:10.37,2013-04-01 04:10:00,
2013-04-01 00:12:00,45.7,42.3,29.68,NNE,20,3.4,5.0,88,0.03,CLR,,0.00,0.0,WeatherDisplay:10.37,2013-04-01 04:12:00,
2013-04-01 00:17:00,45.8,42.4,29.67,NNE,20,4.2,8.1,88,0.02,CLR,,0.01,0.0,WeatherDisplay:10.37,2013-04-01 04:17:00,
2013-04-01 00:22:00,45.8,42.4,29.67,NNE,20,7.3,11.5,88,0.02,RA,,0.01,0.0,WeatherDisplay:10.37,2013-04-01 04:22:00,
2013-04-01 00:27:00,45.9,42.5,29.67,NNE,20,5.2,8.1,88,0.02,,,0.01,0.0,WeatherDisplay:10.37,2013-04-01 04:27:00,
2013-04-01 00:32:00,46.0,42.6,29.65,NNE,20,6.3,11.5,88,0.02,CLR,,0.01,0.0,WeatherDisplay:10.37,2013-04-01 04:32:00,
2013-04-01 00:37:00,46.0,42.6,29.65,NNE,20,2.9,5.8,88,0.02,CLR,,0.01,0.0,WeatherDisplay:10.37,2013-04-01 04:37:00,
2013-04-01 00:42:00,46.1,42.7,29.65,NNE,20,6.4,11.5,88,0.02,CLR,,0.01,0.0,WeatherDisplay:10.37,2013-04-01 04:42:00,
2013-04-01 00:47:00,46.1,42.7,29.63,NNE,20,3.3,11.5,88,0.01,CLR,,0.01,0.0,WeatherDisplay:10.37,2013-04-01 04:47:00,
2013-04-01 00:52:00,46.2,42.8,29.63,NNE,20,5.6,11.0,88,0.01,CLR,,0.01,0.0,WeatherDisplay:10.37,2013-04-01 04:52:00,
2013-04-01 00:57:00,46.3,42.6,29.63,NNE,20,5.9,10.4,87,0.01,CLR,,0.01,0.0,WeatherDisplay:10.37,2013-04-01 04:57:00,
2013-04-01 01:02:00,46.3,42.6,29.62,NNE,20,5.2,9.2,87,0.01,CLR,,0.01,0.0,WeatherDisplay:10.37,2013-04-01 05:02:00,
2013-04-01 01:07:00,46.3,42.6,29.62,NNE,20,4.4,5.8,87,0.01,CLR,,0.01,0.0,WeatherDisplay:10.37,2013-04-01 05:07:00,
2013-04-01 01:12:00,46.3,42.6,29.62,NNE,20,2.0,3.5,87,0.01,CLR,,0.01,0.0,WeatherDisplay:10.37,2013-04-01 05:12:00,
2013-04-01 01:17:00,46.3,42.6,29.60,NNE,20,3.4,5.8,87,0.00,CLR,,0.01,0.0,WeatherDisplay:10.37,2013-04-01 05:17:00,
2013-04-01 01:22:00,46.3,42.6,29.60,NNE,20,2.4,6.9,87,0.00,CLR,,0.01,0.0,WeatherDisplay:10.37,2013-04-01 05:22:00,
2013-04-01 01:27:00,46.3,42.6,29.60,NNE,20,2.6,6.0,87,0.00,CLR,,0.01,0.0,WeatherDisplay:10.37,2013-04-01 05:27:00,
2013-04-01 01:32:00,46.3,42.6,29.59,NNE,20,5.5,10.4,87,0.00,CLR,,0.01,0.0,WeatherDisplay:10.37,2013-04-01 05:32:00,
2013-04-01 01:37:00,46.3,42.6,29.59,NNE,20,1.0,3.5,87,0.00,CLR,,0.01,0.0,WeatherDisplay:10.37,2013-04-01 05:37:00,
2013-04-01 01:42:00,46.3,42.6,29.59,NNE,20,2.9,7.0,87,0.01,RA,,0.02,0.0,WeatherDisplay:10.37,2013-04-01 05:42:00,
2013-04-01 01:47:00,46.3,42.6,29.57,NNE,20,0.6,3.5,87,0.01,RA,,0.02,0.0,WeatherDisplay:10.37,2013-04-01 05:47:00,
2013-04-01 01:53:00,46.4,42.7,29.57,NNE,20,0.3,3.5,87,0.01,CLR,,0.02,0.0,WeatherDisplay:10.37,2013-04-01 05:53:00,
2013-04-01 01:58:00,46.4,42.7,29.57,NNE,20,0.1,3.5,87,0.01,CLR,,0.02,0.0,WeatherDisplay:10.37,2013-04-01 05:58:00,
2013-04-01 02:03:00,46.4,42.7,29.55,NNE,20,0.7,3.0,87,0.01,CLR,,0.02,0.0,WeatherDisplay:10.37,2013-04-01 06:03:00,
2013-04-01 02:08:00,46.4,42.7,29.55,NNE,20,2.5,5.8,87,0.02,RA,,0.03,0.0,WeatherDisplay:10.37,2013-04-01 06:08:00,
2013-04-01 02:13:00,46.4,42.7,29.55,NNE,20,1.3,3.5,87,0.02,RA,,0.03,0.0,WeatherDisplay:10.37,2013-04-01 06:13:00,
2013-04-01 02:18:00,46.4,42.7,29.56,NNE,20,4.2,4.2,87,0.02,CLR,,0.03,0.0,WeatherDisplay:10.37,2013-04-01 06:18:00,
2013-04-01 02:23:00,46.5,42.8,29.56,NNE,20,0.6,2.0,87,0.02,CLR,,0.03,0.0,WeatherDisplay:10.37,2013-04-01 06:23:00,
2013-04-01 02:28:00,46.5,42.8,29.56,NNE,20,0.0,0.0,87,0.02,CLR,,0.03,0.0,WeatherDisplay:10.37,2013-04-01 06:28:00,
2013-04-01 02:33:00,46.4,42.7,29.54,NNE,20,0.0,0.0,87,0.02,CLR,,0.03,0.0,WeatherDisplay:10.37,2013-04-01 06:33:00,
2013-04-01 02:38:00,46.4,42.7,29.54,NNE,20,0.0,0.0,87,0.02,CLR,,0.03,0.0,WeatherDisplay:10.37,2013-04-01 06:38:00,
2013-04-01 02:43:00,46.5,42.8,29.54,NNE,20,0.0,0.0,87,0.01,CLR,,0.03,0.0,WeatherDisplay:10.37,2013-04-01 06:43:00,
2013-04-01 02:48:00,46.5,42.8,29.53,NNE,20,0.0,0.0,87,0.01,CLR,,0.03,0.0,WeatherDisplay:10.37,2013-04-01 06:48:00,
2013-04-01 02:53:00,46.6,42.9,29.53,NNE,20,0.0,0.0,87,0.01,CLR,,0.03,0.0,WeatherDisplay:10.37,2013-04-01 06:53:00,
2013-04-01 02:58:00,46.6,42.9,29.53,NNE,20,0.0,0.0,87,0.01,CLR,,0.03,0.0,WeatherDisplay:10.37,2013-04-01 06:58:00,
2013-04-01 03:03:00,46.7,43.0,29.53,NNE,20,1.8,3.5,87,0.01,CLR,,0.03,0.0,WeatherDisplay:10.37,2013-04-01 07:03:00,
2013-04-01 03:08:00,46.7,43.0,29.53,NNE,20,0.0,1.2,87,0.00,CLR,,0.03,0.0,WeatherDisplay:10.37,2013-04-01 07:08:00,
2013-04-01 03:13:00,46.7,43.0,29.53,NNE,20,0.6,3.5,87,0.00,CLR,,0.03,0.0,WeatherDisplay:10.37,2013-04-01 07:13:00,
2013-04-01 03:18:00,46.7,43.0,29.53,NNE,20,0.8,4.0,87,0.00,CLR,,0.03,0.0,WeatherDisplay:10.37,2013-04-01 07:18:00,
2013-04-01 03:23:00,46.6,42.9,29.53,NNE,20,2.0,4.6,87,0.00,CLR,,0.03,0.0,WeatherDisplay:10.37,2013-04-01 07:23:00,
2013-04-01 03:28:00,46.5,42.8,29.53,NNE,20,2.6,4.6,87,0.01,RA,,0.04,0.0,WeatherDisplay:10.37,2013-04-01 07:28:00,
2013-04-01 03:33:00,46.4,42.7,29.53,NNE,20,1.0,2.3,87,0.01,RA,,0.04,0.0,WeatherDisplay:10.37,2013-04-01 07:33:00,
2013-04-01 03:38:00,46.4,42.7,29.53,NNE,20,2.9,3.5,87,0.01,CLR,,0.04,0.0,WeatherDisplay:10.37,2013-04-01 07:38:00,
2013-04-01 03:43:00,46.3,42.6,29.53,NNE,20,2.8,5.0,87,0.01,CLR,,0.04,0.0,WeatherDisplay:10.37,2013-04-01 07:43:00,
2013-04-01 03:48:00,46.1,42.4,29.53,NNE,20,5.9,9.2,87,0.01,CLR,,0.04,0.0,WeatherDisplay:10.37,2013-04-01 07:48:00,
2013-04-01 03:53:00,45.9,42.2,29.53,NNE,20,5.9,9.2,87,0.01,CLR,,0.04,0.0,WeatherDisplay:10.37,2013-04-01 07:53:00,
2013-04-01 03:58:00,45.7,42.1,29.53,NNE,20,7.9,10.4,87,0.01,CLR,,0.04,0.0,WeatherDisplay:10.37,2013-04-01 07:58:00,
2013-04-01 04:03:00,45.5,41.9,29.52,NNE,20,3.7,6.0,87,0.01,CLR,,0.04,0.0,WeatherDisplay:10.37,2013-04-01 08:03:00,
2013-04-01 04:08:00,45.4,41.8,29.52,NNE,20,5.9,8.1,87,0.01,CLR,,0.04,0.0,WeatherDisplay:10.37,2013-04-01 08:08:00,
2013-04-01 04:13:00,45.2,41.6,29.52,NNE,20,4.4,8.1,87,0.01,CLR,,0.04,0.0,WeatherDisplay:10.37,2013-04-01 08:13:00,
2013-04-01 04:18:00,45.0,41.4,29.53,NNE,20,5.8,9.2,87,0.01,CLR,,0.04,0.0,WeatherDisplay:10.37,2013-04-01 08:18:00,
2013-04-01 04:23:00,44.6,41.0,29.53,NNE,20,7.9,12.7,87,0.01,CLR,,0.04,0.0,WeatherDisplay:10.37,2013-04-01 08:23:00,
2013-04-01 04:28:00,44.4,40.8,29.53,NNE,20,3.2,5.8,87,0.00,CLR,,0.04,0.0,WeatherDisplay:10.37,2013-04-01 08:28:00,
2013-04-01 04:33:00,44.2,40.6,29.54,NNE,20,3.6,6.9,87,0.00,CLR,,0.04,0.0,WeatherDisplay:10.37,2013-04-01 08:33:00,
2013-04-01 04:38:00,44.0,40.4,29.54,NNE,20,5.9,11.5,87,0.00,CLR,,0.04,0.0,WeatherDisplay:10.37,2013-04-01 08:38:00,
2013-04-01 04:43:00,43.8,40.2,29.54,NNE,20,3.8,9.2,87,0.00,CLR,,0.04,0.0,WeatherDisplay:10.37,2013-04-01 08:43:00,
2013-04-01 04:48:00,43.6,40.0,29.55,NNE,20,5.5,8.0,87,0.00,CLR,,0.04,0.0,WeatherDisplay:10.37,2013-04-01 08:48:00,
2013-04-01 04:53:00,43.6,40.0,29.55,NNE,20,5.1,9.2,87,0.00,CLR,,0.04,0.0,WeatherDisplay:10.37,2013-04-01 08:53:00,
2013-04-01 04:58:00,43.5,39.9,29.55,NNE,20,0.1,6.9,87,0.00,CLR,,0.04,0.0,WeatherDisplay:10.37,2013-04-01 08:58:00,
2013-04-01 05:03:00,43.5,39.9,29.56,NNE,20,3.5,3.5,87,0.00,CLR,,0.04,0.0,WeatherDisplay:10.37,2013-04-01 09:03:00,
2013-04-01 05:08:00,43.5,39.9,29.56,NNE,20,6.2,7.0,87,0.00,CLR,,0.04,0.0,WeatherDisplay:10.37,2013-04-01 09:08:00,
2013-04-01 05:13:00,43.5,39.9,29.56,NNE,24,1.2,6.9,87,0.00,CLR,,0.04,0.0,WeatherDisplay:10.37,2013-04-01 09:13:00,
2013-04-01 05:18:00,43.4,39.8,29.57,NNE,20,5.8,7.0,87,0.00,CLR,,0.04,0.0,WeatherDisplay:10.37,2013-04-01 09:18:00,
2013-04-01 05:23:00,43.4,39.8,29.57,NNE,20,4.0,6.0,87,0.00,CLR,,0.04,0.0,WeatherDisplay:10.37,2013-04-01 09:23:00,
2013-04-01 05:28:00,43.4,39.8,29.57,NNE,20,4.7,7.0,87,0.00,CLR,,0.04,0.0,WeatherDisplay:10.37,2013-04-01 09:28:00,
2013-04-01 05:33:00,43.3,39.7,29.57,NNE,20,2.1,6.9,87,0.00,CLR,,0.04,0.0,WeatherDisplay:10.37,2013-04-01 09:33:00,
2013-04-01 05:38:00,43.3,39.7,29.57,NNE,20,3.2,5.8,87,0.00,CLR,,0.04,0.0,WeatherDisplay:10.37,2013-04-01 09:38:00,
2013-04-01 05:43:00,43.3,39.7,29.57,NNE,20,3.9,6.9,87,0.00,CLR,,0.04,0.0,WeatherDisplay:10.37,2013-04-01 09:43:00,
2013-04-01 05:49:00,43.4,39.8,29.58,NNE,20,3.6,6.9,87,0.00,CLR,,0.04,0.0,WeatherDisplay:10.37,2013-04-01 09:49:00,
2013-04-01 05:54:00,43.4,39.8,29.58,NNE,20,4.3,5.8,87,0.00,CLR,,0.04,0.0,WeatherDisplay:10.37,2013-04-01 09:54:00,
2013-04-01 05:59:00,43.4,39.8,29.58,NNE,20,2.6,3.5,87,0.00,CLR,,0.04,0.0,WeatherDisplay:10.37,2013-04-01 09:59:00,
2013-04-01 06:04:00,43.4,39.8,29.59,NNE,20,4.1,6.0,87,0.00,OVC,,0.04,0.0,WeatherDisplay:10.37,2013-04-01 10:04:00,
2013-04-01 06:09:00,43.4,39.8,29.59,NNE,20,4.5,8.1,87,0.00,OVC,,0.04,0.0,WeatherDisplay:10.37,2013-04-01 10:09:00,
2013-04-01 06:14:00,43.3,39.7,29.59,NNE,20,5.2,8.1,87,0.00,OVC,,0.04,0.0,WeatherDisplay:10.37,2013-04-01 10:14:00,
2013-04-01 06:19:00,43.3,39.7,29.59,NNE,20,4.0,5.8,87,0.00,OVC,,0.04,0.0,WeatherDisplay:10.37,2013-04-01 10:19:00,
2013-04-01 06:24:00,43.2,39.6,29.59,NNE,20,4.5,6.9,87,0.00,OVC,,0.04,0.0,WeatherDisplay:10.37,2013-04-01 10:24:00,
2013-04-01 06:29:00,43.2,39.6,29.59,NNE,20,2.9,4.6,87,0.00,OVC,,0.04,0.0,WeatherDisplay:10.37,2013-04-01 10:29:00,
2013-04-01 06:34:00,43.2,39.6,29.59,NNE,20,3.9,5.8,87,0.00,OVC,,0.04,5.0,WeatherDisplay:10.37,2013-04-01 10:34:00,
2013-04-01 06:39:00,43.2,39.6,29.59,NNE,20,4.3,8.1,87,0.00,CLR,,0.04,7.0,WeatherDisplay:10.37,2013-04-01 10:39:00,
2013-04-01 06:44:00,43.2,39.6,29.60,NNE,20,4.3,5.8,87,0.00,BKN,,0.04,7.0,WeatherDisplay:10.37,2013-04-01 10:44:00,
2013-04-01 06:49:00,43.2,39.6,29.60,NNE,20,6.5,10.4,87,0.00,BKN,,0.04,11.0,WeatherDisplay:10.37,2013-04-01 10:49:00,
2013-04-01 06:54:00,43.2,39.6,29.60,NNE,20,4.1,7.0,87,0.00,OVC,,0.04,11.0,WeatherDisplay:10.37,2013-04-01 10:54:00,
2013-04-01 06:59:00,43.1,39.5,29.60,NNE,20,4.0,6.9,87,0.00,OVC,,0.04,11.0,WeatherDisplay:10.37,2013-04-01 10:59:00,
2013-04-01 07:04:00,43.2,39.6,29.60,NNE,20,3.5,8.0,87,0.00,OVC,,0.04,16.0,WeatherDisplay:10.37,2013-04-01 11:04:00,
2013-04-01 07:09:00,43.1,39.5,29.60,NNE,20,4.8,6.9,87,0.00,OVC,,0.04,26.0,WeatherDisplay:10.37,2013-04-01 11:09:00,
2013-04-01 07:14:00,43.2,39.6,29.60,NNE,20,4.6,9.2,87,0.00,BKN,,0.04,33.0,WeatherDisplay:10.37,2013-04-01 11:14:00,
2013-04-01 07:19:00,43.1,39.5,29.60,NNE,20,8.4,11.5,87,0.00,OVC,,0.04,33.0,WeatherDisplay:10.37,2013-04-01 11:19:00,
2013-04-01 07:24:00,43.1,39.5,29.60,NNE,20,8.7,12.7,87,0.00,BKN,,0.04,42.0,WeatherDisplay:10.37,2013-04-01 11:24:00,
2013-04-01 07:29:00,43.1,39.5,29.60,NNE,20,3.9,6.9,87,0.00,BKN,,0.04,60.0,WeatherDisplay:10.37,2013-04-01 11:29:00,
2013-04-01 07:34:00,43.2,39.6,29.60,NNE,20,7.2,16.1,87,0.00,SCT,,0.04,77.0,WeatherDisplay:10.37,2013-04-01 11:34:00,
2013-04-01 07:39:00,43.2,39.6,29.60,NNE,20,3.0,9.2,87,0.00,BKN,,0.04,70.0,WeatherDisplay:10.37,2013-04-01 11:39:00,
2013-04-01 07:44:00,43.3,39.7,29.60,NNE,20,6.2,11.5,87,0.00,SCT,,0.04,113.0,WeatherDisplay:10.37,2013-04-01 11:44:00,
2013-04-01 07:49:00,43.4,39.8,29.60,NNE,20,6.3,11.5,87,0.00,CLR,,0.04,279.0,WeatherDisplay:10.37,2013-04-01 11:49:00,
2013-04-01 07:54:00,43.4,39.8,29.60,NNE,20,5.0,8.1,87,0.00,CLR,,0.04,255.0,WeatherDisplay:10.37,2013-04-01 11:54:00,
2013-04-01 07:59:00,43.6,40.3,29.60,NNE,20,5.1,9.2,88,0.00,CLR,,0.04,308.0,WeatherDisplay:10.37,2013-04-01 11:59:00,
2013-04-01 08:04:00,43.7,40.4,29.60,NNE,20,4.4,9.0,88,0.00,CLR,,0.04,297.0,WeatherDisplay:10.37,2013-04-01 12:04:00,
2013-04-01 08:09:00,43.9,40.6,29.60,NNE,20,6.5,11.5,88,0.00,BKN,,0.04,116.0,WeatherDisplay:10.37,2013-04-01 12:09:00,
2013-04-01 08:14:00,44.2,40.9,29.60,NNE,20,4.6,9.2,88,0.00,CLR,,0.04,357.0,WeatherDisplay:10.37,2013-04-01 12:14:00,
2013-04-01 08:19:00,44.3,41.0,29.60,NNE,20,9.0,13.8,88,0.00,CLR,,0.04,364.0,WeatherDisplay:10.37,2013-04-01 12:19:00,
2013-04-01 08:24:00,44.4,41.1,29.60,NNE,20,2.9,9.2,88,0.00,CLR,,0.04,401.0,WeatherDisplay:10.37,2013-04-01 12:24:00,
2013-04-01 08:29:00,44.8,41.8,29.60,NNE,20,5.6,10.4,89,0.00,CLR,,0.04,424.0,WeatherDisplay:10.37,2013-04-01 12:29:00,
2013-04-01 08:34:00,45.0,42.0,29.60,NNE,20,6.4,9.2,89,0.00,CLR,,0.04,436.0,WeatherDisplay:10.37,2013-04-01 12:34:00,
2013-04-01 08:39:00,45.0,42.0,29.60,NNE,24,9.0,14.0,89,0.00,CLR,,0.04,431.0,WeatherDisplay:10.37,2013-04-01 12:39:00,
2013-04-01 08:44:00,45.3,42.5,29.60,NNE,20,5.7,10.4,90,0.00,CLR,,0.04,397.0,WeatherDisplay:10.37,2013-04-01 12:44:00,
2013-04-01 08:49:00,45.5,42.7,29.60,NNE,20,8.7,11.5,90,0.00,CLR,,0.04,513.0,WeatherDisplay:10.37,2013-04-01 12:49:00,
2013-04-01 08:54:00,45.7,42.9,29.60,NNE,20,3.8,8.1,90,0.00,FEW,,0.04,308.0,WeatherDisplay:10.37,2013-04-01 12:54:00,
2013-04-01 08:59:00,45.8,43.0,29.60,NNE,20,6.3,10.4,90,0.00,BKN,,0.04,181.0,WeatherDisplay:10.37,2013-04-01 12:59:00,
2013-04-01 09:04:00,45.6,42.8,29.60,NNE,20,3.1,6.9,90,0.00,BKN,,0.04,171.0,WeatherDisplay:10.37,2013-04-01 13:04:00,
2013-04-01 09:09:00,45.8,43.0,29.60,NNE,20,8.6,11.5,90,0.00,SCT,,0.04,246.0,WeatherDisplay:10.37,2013-04-01 13:09:00,
2013-04-01 09:14:00,46.0,43.2,29.60,NNE,20,3.1,5.8,90,0.00,CLR,,0.04,578.0,WeatherDisplay:10.37,2013-04-01 13:14:00,
2013-04-01 09:19:00,46.3,43.2,29.60,NNE,20,7.2,10.4,89,0.00,BKN,,0.04,207.0,WeatherDisplay:10.37,2013-04-01 13:19:00,
2013-04-01 09:24:00,46.7,43.3,29.60,NNE,20,6.7,11.5,88,0.00,CLR,,0.04,571.0,WeatherDisplay:10.37,2013-04-01 13:24:00,
2013-04-01 09:29:00,46.5,43.1,29.60,NNE,20,8.9,11.5,88,0.00,OVC,,0.04,163.0,WeatherDisplay:10.37,2013-04-01 13:29:00,
2013-04-01 09:34:00,46.5,43.1,29.60,NNE,20,5.6,8.1,88,0.00,CLR,,0.04,679.0,WeatherDisplay:10.37,2013-04-01 13:34:00,
2013-04-01 09:39:00,46.8,43.1,29.60,NNE,20,5.2,12.7,87,0.00,OVC,,0.04,193.0,WeatherDisplay:10.37,2013-04-01 13:39:00,
2013-04-01 09:44:00,47.3,43.6,29.61,NNE,20,5.8,8.1,87,0.00,FEW,,0.04,496.0,WeatherDisplay:10.37,2013-04-01 13:44:00,
2013-04-01 09:49:00,47.9,43.9,29.61,NNE,20,5.1,8.1,86,0.00,CLR,,0.04,677.0,WeatherDisplay:10.37,2013-04-01 13:49:00,
2013-04-01 09:54:00,47.6,43.3,29.61,NNE,20,7.0,9.2,85,0.00,CLR,,0.04,694.0,WeatherDisplay:10.37,2013-04-01 13:54:00,
2013-04-01 09:59:00,48.0,43.7,29.60,NNE,20,2.7,8.0,85,0.00,CLR,,0.04,689.0,WeatherDisplay:10.37,2013-04-01 13:59:00,
2013-04-01 10:04:00,48.1,43.5,29.60,NNE,20,5.3,10.4,84,0.00,CLR,,0.04,708.0,WeatherDisplay:10.37,2013-04-01 14:04:00,
2013-04-01 10:09:00,49.2,44.3,29.60,NNE,20,4.9,8.0,83,0.00,CLR,,0.04,673.0,WeatherDisplay:10.37,2013-04-01 14:09:00,
2013-04-01 10:14:00,49.2,43.6,29.60,NNE,20,4.4,6.9,81,0.00,CLR,,0.04,689.0,WeatherDisplay:10.37,2013-04-01 14:14:00,
2013-04-01 10:19:00,49.4,43.5,29.60,NNE,20,6.8,8.1,80,0.00,CLR,,0.04,703.0,WeatherDisplay:10.37,2013-04-01 14:19:00,
2013-04-01 10:24:00,49.9,43.6,29.60,NNE,20,6.8,9.2,79,0.00,CLR,,0.04,708.0,WeatherDisplay:10.37,2013-04-01 14:24:00,
2013-04-01 10:29:00,50.8,44.5,29.60,NNE,20,3.8,8.1,79,0.00,CLR,,0.04,717.0,WeatherDisplay:10.37,2013-04-01 14:29:00,
2013-04-01 10:34:00,50.7,43.8,29.60,NNE,20,6.6,9.2,77,0.00,CLR,,0.04,729.0,WeatherDisplay:10.37,2013-04-01 14:34:00,
2013-04-01 10:39:00,51.3,44.7,29.60,NNE,20,1.2,8.0,78,0.00,CLR,,0.04,738.0,WeatherDisplay:10.37,2013-04-01 14:39:00,
2013-04-01 10:44:00,51.1,43.4,29.60,NNE,20,8.1,13.8,75,0.00,CLR,,0.04,749.0,WeatherDisplay:10.37,2013-04-01 14:44:00,
2013-04-01 10:49:00,52.1,44.8,29.60,NNE,20,5.2,6.9,76,0.00,CLR,,0.04,756.0,WeatherDisplay:10.37,2013-04-01 14:49:00,
2013-04-01 10:54:00,52.6,44.5,29.60,NNE,20,6.1,11.5,74,0.00,CLR,,0.04,765.0,WeatherDisplay:10.37,2013-04-01 14:54:00,
2013-04-01 10:59:00,53.1,45.0,29.59,NNE,20,0.7,4.0,74,0.00,CLR,,0.04,770.0,WeatherDisplay:10.37,2013-04-01 14:59:00,
2013-04-01 11:04:00,53.0,44.6,29.59,NNE,20,8.8,13.8,73,0.00,CLR,,0.04,780.0,WeatherDisplay:10.37,2013-04-01 15:04:00,
2013-04-01 11:09:00,54.0,45.5,29.59,NNE,20,5.4,11.5,73,0.00,CLR,,0.04,793.0,WeatherDisplay:10.37,2013-04-01 15:09:00,
2013-04-01 11:14:00,54.1,44.5,29.58,NNE,20,3.5,11.5,70,0.00,CLR,,0.04,798.0,WeatherDisplay:10.37,2013-04-01 15:14:00,
2013-04-01 11:19:00,54.9,44.9,29.58,NNE,20,8.5,12.7,69,0.00,CLR,,0.04,807.0,WeatherDisplay:10.37,2013-04-01 15:19:00,
2013-04-01 11:24:00,55.4,45.8,29.58,NNE,20,2.3,5.0,70,0.00,CLR,,0.04,812.0,WeatherDisplay:10.37,2013-04-01 15:24:00,
2013-04-01 11:29:00,55.4,44.6,29.58,NNE,20,5.3,8.1,67,0.00,CLR,,0.04,817.0,WeatherDisplay:10.37,2013-04-01 15:29:00,
2013-04-01 11:34:00,55.7,44.9,29.58,NNE,20,8.8,13.8,67,0.00,CLR,,0.04,826.0,WeatherDisplay:10.37,2013-04-01 15:34:00,
2013-04-01 11:39:00,56.2,45.4,29.58,NNE,20,6.8,11.5,67,0.00,CLR,,0.04,833.0,WeatherDisplay:10.37,2013-04-01 15:39:00,
2013-04-01 11:44:00,57.1,46.2,29.58,NNE,20,5.9,8.1,67,0.00,CLR,,0.04,853.0,WeatherDisplay:10.37,2013-04-01 15:44:00,
2013-04-01 11:49:00,56.8,45.2,29.58,NNE,20,6.2,11.5,65,0.00,CLR,,0.04,858.0,WeatherDisplay:10.37,2013-04-01 15:49:00,
2013-04-01 11:54:00,58.1,46.0,29.58,NNE,20,8.3,12.7,64,0.00,CLR,,0.04,895.0,WeatherDisplay:10.37,2013-04-01 15:54:00,
2013-04-01 11:59:00,57.5,45.0,29.56,NNE,20,9.5,11.5,63,0.00,CLR,,0.04,816.0,WeatherDisplay:10.37,2013-04-01 15:59:00,
2013-04-01 12:04:00,58.1,45.6,29.56,NNE,20,2.9,6.0,63,0.00,CLR,,0.04,847.0,WeatherDisplay:10.37,2013-04-01 16:04:00,
2013-04-01 12:09:00,59.0,46.0,29.56,NNE,20,9.3,13.8,62,0.00,CLR,,0.04,851.0,WeatherDisplay:10.37,2013-04-01 16:09:00,
2013-04-01 12:14:00,58.8,45.8,29.55,NNE,20,4.1,9.2,62,0.00,CLR,,0.04,858.0,WeatherDisplay:10.37,2013-04-01 16:14:00,
2013-04-01 12:19:00,59.8,45.0,29.55,NNE,20,7.0,11.5,58,0.00,CLR,,0.04,860.0,WeatherDisplay:10.37,2013-04-01 16:19:00,
2013-04-01 12:24:00,59.0,44.2,29.55,NNE,20,5.5,9.2,58,0.00,CLR,,0.04,865.0,WeatherDisplay:10.37,2013-04-01 16:24:00,
2013-04-01 12:29:00,59.9,46.0,29.55,NNE,20,9.0,11.5,60,0.00,CLR,,0.04,875.0,WeatherDisplay:10.37,2013-04-01 16:29:00,
2013-04-01 12:34:00,60.0,43.8,29.55,NNE,20,17.1,21.9,55,0.00,CLR,,0.04,886.0,WeatherDisplay:10.37,2013-04-01 16:34:00,
2013-04-01 12:39:00,61.1,44.8,29.55,NNE,20,11.1,20.0,55,0.00,CLR,,0.04,972.0,WeatherDisplay:10.37,2013-04-01 16:39:00,
2013-04-01 12:44:00,60.2,44.4,29.54,NNE,20,5.6,10.0,56,0.00,OVC,,0.04,257.0,WeatherDisplay:10.37,2013-04-01 16:44:00,
2013-04-01 12:49:00,60.3,44.5,29.54,NNE,20,11.0,18.4,56,0.00,CLR,,0.04,962.0,WeatherDisplay:10.37,2013-04-01 16:49:00,
2013-04-01 12:54:00,60.7,43.9,29.54,NNE,20,12.4,26.5,54,0.00,CLR,,0.04,958.0,WeatherDisplay:10.37,2013-04-01 16:54:00,
2013-04-01 12:59:00,60.8,44.0,29.54,NNE,20,12.2,20.7,54,0.00,CLR,,0.04,958.0,WeatherDisplay:10.37,2013-04-01 16:59:00,
2013-04-01 13:04:00,60.3,44.1,29.54,NNE,20,10.2,18.4,55,0.00,CLR,,0.04,958.0,WeatherDisplay:10.37,2013-04-01 17:04:00,
2013-04-01 13:09:00,59.7,44.0,29.54,NNE,20,3.9,16.1,56,0.00,OVC,,0.04,265.0,WeatherDisplay:10.37,2013-04-01 17:09:00,
2013-04-01 13:14:00,61.0,44.7,29.53,NNE,20,8.2,11.5,55,0.00,OVC,,0.04,265.0,WeatherDisplay:10.37,2013-04-01 17:14:00,
2013-04-01 13:19:00,61.3,44.0,29.53,NNE,20,17.4,24.2,53,0.00,CLR,,0.04,1014.0,WeatherDisplay:10.37,2013-04-01 17:19:00,
2013-04-01 13:24:00,60.6,43.9,29.53,NNE,20,11.3,18.4,54,0.00,CLR,,0.04,1014.0,WeatherDisplay:10.37,2013-04-01 17:24:00,
2013-04-01 13:29:00,60.0,43.8,29.52,NNE,20,9.6,13.8,55,0.00,OVC,,0.04,137.0,WeatherDisplay:10.37,2013-04-01 17:29:00,
2013-04-01 13:34:00,59.4,43.7,29.52,NNE,20,4.8,8.1,56,0.00,OVC,,0.04,114.0,WeatherDisplay:10.37,2013-04-01 17:34:00,
2013-04-01 13:39:00,59.8,44.1,29.52,NNE,20,7.3,12.7,56,0.00,OVC,,0.04,267.0,WeatherDisplay:10.37,2013-04-01 17:39:00,
2013-04-01 13:44:00,60.8,44.5,29.52,NNE,20,9.6,15.0,55,0.00,OVC,,0.04,195.0,WeatherDisplay:10.37,2013-04-01 17:44:00,
2013-04-01 13:49:00,60.2,44.0,29.52,NNE,20,4.8,9.2,55,0.00,OVC,,0.04,127.0,WeatherDisplay:10.37,2013-04-01 17:49:00,
2013-04-01 13:54:00,60.2,44.0,29.52,NNE,20,8.1,12.7,55,0.00,OVC,,0.04,211.0,WeatherDisplay:10.37,2013-04-01 17:54:00,
2013-04-01 13:59:00,60.1,43.9,29.51,NNE,20,6.5,9.2,55,0.00,OVC,,0.04,139.0,WeatherDisplay:10.37,2013-04-01 17:59:00,
2013-04-01 14:04:00,60.0,42.8,29.51,NNE,20,11.6,18.4,53,0.00,OVC,,0.04,120.0,WeatherDisplay:10.37,2013-04-01 18:04:00,
2013-04-01 14:09:00,60.0,42.8,29.51,NNE,20,15.7,23.0,53,0.00,OVC,,0.04,292.0,WeatherDisplay:10.37,2013-04-01 18:09:00,
2013-04-01 14:14:00,60.0,43.3,29.50,NNE,20,8.7,13.8,54,0.00,OVC,,0.04,76.0,WeatherDisplay:10.37,2013-04-01 18:14:00,
2013-04-01 14:19:00,59.6,43.9,29.50,NNE,20,12.5,18.4,56,0.00,OVC,,0.04,132.0,WeatherDisplay:10.37,2013-04-01 18:19:00,
2013-04-01 14:24:00,59.3,45.0,29.50,NNE,20,14.8,19.6,59,0.00,OVC,,0.04,165.0,WeatherDisplay:10.37,2013-04-01 18:24:00,
2013-04-01 14:29:00,59.2,45.8,29.50,NNE,20,13.7,15.0,61,0.00,OVC,,0.04,214.0,WeatherDisplay:10.37,2013-04-01 18:29:00,
2013-04-01 14:34:00,59.1,46.1,29.50,NNE,20,9.7,19.6,62,0.00,OVC,,0.04,185.0,WeatherDisplay:10.37,2013-04-01 18:34:00,
2013-04-01 14:39:00,59.0,46.0,29.50,NNE,20,9.5,18.4,62,0.00,OVC,,0.04,155.0,WeatherDisplay:10.37,2013-04-01 18:39:00,
2013-04-01 14:44:00,59.0,46.0,29.50,NNE,20,7.1,13.8,62,0.00,OVC,,0.04,144.0,WeatherDisplay:10.37,2013-04-01 18:44:00,
2013-04-01 14:49:00,59.0,46.0,29.50,NNE,20,13.1,16.1,62,0.00,OVC,,0.04,181.0,WeatherDisplay:10.37,2013-04-01 18:49:00,
2013-04-01 14:54:00,59.0,46.0,29.50,NNE,20,9.2,11.5,62,0.00,OVC,,0.04,237.0,WeatherDisplay:10.37,2013-04-01 18:54:00,
2013-04-01 14:59:00,59.4,45.1,29.49,NNE,20,17.9,25.3,59,0.00,OVC,,0.04,206.0,WeatherDisplay:10.37,2013-04-01 18:59:00,
2013-04-01 15:04:00,59.6,45.7,29.49,NNE,20,17.1,25.3,60,0.00,BKN,,0.04,803.0,WeatherDisplay:10.37,2013-04-01 19:04:00,
2013-04-01 15:09:00,60.3,45.5,29.49,NNE,20,13.0,18.0,58,0.00,BKN,,0.04,285.0,WeatherDisplay:10.37,2013-04-01 19:09:00,
2013-04-01 15:14:00,60.5,44.7,29.49,NNE,20,12.8,22.0,56,0.00,CLR,,0.04,721.0,WeatherDisplay:10.37,2013-04-01 19:14:00,
2013-04-01 15:19:00,59.9,44.6,29.49,NNE,20,8.3,15.0,57,0.00,OVC,,0.04,185.0,WeatherDisplay:10.37,2013-04-01 19:19:00,
2013-04-01 15:24:00,60.1,44.8,29.49,NNE,20,13.3,18.0,57,0.00,OVC,,0.04,738.0,WeatherDisplay:10.37,2013-04-01 19:24:00,
2013-04-01 15:29:00,60.4,44.2,29.48,NNE,20,14.2,21.0,55,0.00,CLR,,0.04,666.0,WeatherDisplay:10.37,2013-04-01 19:29:00,
2013-04-01 15:34:00,60.3,44.5,29.48,NNE,20,7.7,18.4,56,0.00,CLR,,0.04,265.0,WeatherDisplay:10.37,2013-04-01 19:34:00,
2013-04-01 15:39:00,59.9,44.6,29.48,NNE,20,11.4,19.6,57,0.00,OVC,,0.04,155.0,WeatherDisplay:10.37,2013-04-01 19:39:00,
2013-04-01 15:44:00,59.3,44.1,29.48,NNE,20,9.4,11.5,57,0.00,OVC,,0.04,58.0,WeatherDisplay:10.37,2013-04-01 19:44:00,
2013-04-01 15:49:00,59.0,44.2,29.48,NNE,20,8.0,11.5,58,0.00,OVC,,0.04,25.0,WeatherDisplay:10.37,2013-04-01 19:49:00,
2013-04-01 15:54:00,58.3,44.5,29.48,NNE,20,13.6,25.3,60,0.00,OVC,,0.04,19.0,WeatherDisplay:10.37,2013-04-01 19:54:00,
2013-04-01 15:59:00,56.0,44.4,29.50,NNE,20,8.1,17.3,65,0.00,OVC,,0.04,7.0,WeatherDisplay:10.37,2013-04-01 19:59:00,
2013-04-01 16:04:00,53.3,45.2,29.50,NNE,20,10.4,11.5,74,0.01,RA,,0.07,7.0,WeatherDisplay:10.37,2013-04-01 20:04:00,
2013-04-01 16:09:00,50.8,44.9,29.50,NNE,20,8.2,17.0,80,0.05,RA,,0.10,7.0,WeatherDisplay:10.37,2013-04-01 20:09:00,
2013-04-01 16:14:00,49.6,45.0,29.52,NNE,20,11.2,15.0,84,0.07,RA,,0.11,5.0,WeatherDisplay:10.37,2013-04-01 20:14:00,
2013-04-01 16:19:00,48.9,44.9,29.52,NNE,20,10.5,15.0,86,0.07,RA,,0.11,5.0,WeatherDisplay:10.37,2013-04-01 20:19:00,
2013-04-01 16:24:00,48.3,44.6,29.52,NNE,20,10.3,14.0,87,0.09,RA,,0.13,14.0,WeatherDisplay:10.37,2013-04-01 20:24:00,
2013-04-01 16:29:00,47.6,43.9,29.53,NNE,20,11.9,18.4,87,0.10,RA,,0.14,28.0,WeatherDisplay:10.37,2013-04-01 20:29:00,
2013-04-01 16:34:00,47.2,43.8,29.53,NNE,20,9.7,13.8,88,0.11,RA,,0.15,18.0,WeatherDisplay:10.37,2013-04-01 20:34:00,
2013-04-01 16:39:00,47.0,43.6,29.53,NNE,20,9.4,16.0,88,0.12,RA,,0.17,23.0,WeatherDisplay:10.37,2013-04-01 20:39:00,
2013-04-01 16:44:00,46.9,43.8,29.55,NNE,20,4.2,6.9,89,0.13,RA,,0.17,37.0,WeatherDisplay:10.37,2013-04-01 20:44:00,
2013-04-01 16:49:00,46.9,43.8,29.55,NNE,20,7.8,11.5,89,0.13,RA,,0.17,44.0,WeatherDisplay:10.37,2013-04-01 20:49:00,
2013-04-01 16:54:00,46.9,43.8,29.55,NNE,20,4.2,5.0,89,0.13,OVC,,0.17,39.0,WeatherDisplay:10.37,2013-04-01 20:54:00,
2013-04-01 16:59:00,46.9,43.8,29.56,NNE,20,4.2,6.9,89,0.13,OVC,,0.17,51.0,WeatherDisplay:10.37,2013-04-01 20:59:00,
2013-04-01 17:04:00,46.9,43.8,29.56,NNE,20,0.2,5.0,89,0.12,OVC,,0.17,88.0,WeatherDisplay:10.37,2013-04-01 21:04:00,
2013-04-01 17:09:00,46.9,43.8,29.56,NNE,20,2.4,6.9,89,0.08,OVC,,0.17,107.0,WeatherDisplay:10.37,2013-04-01 21:09:00,
2013-04-01 17:14:00,47.2,44.1,29.57,NNE,20,3.6,12.0,89,0.06,BKN,,0.17,128.0,WeatherDisplay:10.37,2013-04-01 21:14:00,
2013-04-01 17:19:00,47.3,44.2,29.57,NNE,20,3.7,10.4,89,0.06,OVC,,0.17,21.0,WeatherDisplay:10.37,2013-04-01 21:19:00,
2013-04-01 17:24:00,46.9,43.8,29.57,NNE,20,12.1,19.6,89,0.04,OVC,,0.17,28.0,WeatherDisplay:10.37,2013-04-01 21:24:00,
2013-04-01 17:29:00,45.6,42.3,29.59,NNE,20,9.3,20.7,88,0.03,OVC,,0.17,19.0,WeatherDisplay:10.37,2013-04-01 21:29:00,
2013-04-01 17:34:00,45.0,41.4,29.59,NNE,20,9.9,16.1,87,0.02,OVC,,0.17,39.0,WeatherDisplay:10.37,2013-04-01 21:34:00,
2013-04-01 17:39:00,44.3,40.4,29.59,NNE,20,13.7,19.6,86,0.01,OVC,,0.17,49.0,WeatherDisplay:10.37,2013-04-01 21:39:00,
2013-04-01 17:44:00,43.6,39.4,29.60,NNE,20,7.3,10.4,85,0.00,OVC,,0.17,56.0,WeatherDisplay:10.37,2013-04-01 21:44:00,
2013-04-01 17:49:00,42.7,37.0,29.60,NNE,20,10.2,25.3,80,0.00,BKN,,0.17,70.0,WeatherDisplay:10.37,2013-04-01 21:49:00,
2013-04-01 17:54:00,42.3,35.9,29.60,NNE,20,11.4,15.0,78,0.00,SCT,,0.17,127.0,WeatherDisplay:10.37,2013-04-01 21:54:00,
2013-04-01 17:59:00,42.1,35.1,29.62,NNE,20,16.6,25.0,76,0.00,OVC,,0.17,53.0,WeatherDisplay:10.37,2013-04-01 21:59:00,
2013-04-01 18:04:00,41.7,34.4,29.62,NNE,20,15.2,20.7,75,0.00,OVC,,0.17,49.0,WeatherDisplay:10.37,2013-04-01 22:04:00,
2013-04-01 18:09:00,41.5,34.2,29.62,NNE,20,9.8,15.0,75,0.00,BKN,,0.17,67.0,WeatherDisplay:10.37,2013-04-01 22:09:00,
2013-04-01 18:14:00,41.4,34.4,29.62,NNE,20,9.6,23.0,76,0.00,BKN,,0.17,63.0,WeatherDisplay:10.37,2013-04-01 22:14:00,
2013-04-01 18:19:00,41.4,34.4,29.62,NNE,20,5.8,11.5,76,0.00,BKN,,0.17,65.0,WeatherDisplay:10.37,2013-04-01 22:19:00,
2013-04-01 18:24:00,41.4,34.1,29.62,NNE,20,10.7,13.8,75,0.00,BKN,,0.17,47.0,WeatherDisplay:10.37,2013-04-01 22:24:00,
2013-04-01 18:29:00,41.1,33.8,29.63,NNE,20,2.9,8.0,75,0.00,OVC,,0.17,33.0,WeatherDisplay:10.37,2013-04-01 22:29:00,
2013-04-01 18:34:00,40.9,33.6,29.63,NNE,20,13.3,19.6,75,0.00,OVC,,0.17,18.0,WeatherDisplay:10.37,2013-04-01 22:34:00,
2013-04-01 18:39:00,40.8,33.5,29.63,NNE,20,8.4,16.1,75,0.00,OVC,,0.17,16.0,WeatherDisplay:10.37,2013-04-01 22:39:00,
2013-04-01 18:44:00,40.6,33.3,29.64,NNE,20,4.8,7.0,75,0.00,OVC,,0.17,11.0,WeatherDisplay:10.37,2013-04-01 22:44:00,
2013-04-01 18:49:00,40.5,33.9,29.64,NNE,20,10.0,10.4,77,0.00,OVC,,0.17,12.0,WeatherDisplay:10.37,2013-04-01 22:49:00,
2013-04-01 18:54:00,40.3,33.0,29.64,NNE,20,13.0,19.6,75,0.00,OVC,,0.17,9.0,WeatherDisplay:10.37,2013-04-01 22:54:00,
2013-04-01 18:59:00,40.4,32.8,29.64,NNE,20,6.0,9.2,74,0.00,OVC,,0.17,14.0,WeatherDisplay:10.37,2013-04-01 22:59:00,
2013-04-01 19:04:00,40.3,32.7,29.64,NNE,20,5.6,15.0,74,0.00,BKN,,0.17,9.0,WeatherDisplay:10.37,2013-04-01 23:04:00,
2013-04-01 19:09:00,40.2,32.2,29.64,NNE,20,7.4,19.6,73,0.00,BKN,,0.17,5.0,WeatherDisplay:10.37,2013-04-01 23:09:00,
2013-04-01 19:14:00,40.1,31.4,29.65,NNE,20,3.7,15.0,71,0.00,SCT,,0.17,5.0,WeatherDisplay:10.37,2013-04-01 23:14:00,
2013-04-01 19:19:00,40.2,31.2,29.65,NNE,20,3.0,13.8,70,0.00,OVC,,0.17,0.0,WeatherDisplay:10.37,2013-04-01 23:19:00,
2013-04-01 19:24:00,40.1,31.1,29.65,NNE,20,4.5,17.3,70,0.00,OVC,,0.17,0.0,WeatherDisplay:10.37,2013-04-01 23:24:00,
2013-04-01 19:29:00,40.2,30.5,29.65,NNE,20,10.4,16.1,68,0.00,OVC,,0.17,0.0,WeatherDisplay:10.37,2013-04-01 23:29:00,
2013-04-01 19:34:00,40.2,30.1,29.65,NNE,20,4.7,15.0,67,0.00,OVC,,0.17,0.0,WeatherDisplay:10.37,2013-04-01 23:34:00,
2013-04-01 19:39:00,40.2,29.7,29.65,NNE,20,7.3,12.7,66,0.00,OVC,,0.17,0.0,WeatherDisplay:10.37,2013-04-01 23:39:00,
2013-04-01 19:44:00,40.2,29.4,29.65,NNE,20,5.4,8.1,65,0.00,CLR,,0.17,0.0,WeatherDisplay:10.37,2013-04-01 23:44:00,
2013-04-01 19:49:00,40.1,28.9,29.65,NNE,20,10.2,19.6,64,0.00,CLR,,0.17,0.0,WeatherDisplay:10.37,2013-04-01 23:49:00,
2013-04-01 19:54:00,40.0,28.8,29.65,NNE,20,4.9,6.0,64,0.00,CLR,,0.17,0.0,WeatherDisplay:10.37,2013-04-01 23:54:00,
2013-04-01 19:59:00,39.9,28.7,29.66,NNE,20,0.4,3.5,64,0.00,CLR,,0.17,0.0,WeatherDisplay:10.37,2013-04-01 23:59:00,
2013-04-01 20:04:00,39.8,28.2,29.66,NNE,20,4.1,17.3,63,0.00,CLR,,0.17,0.0,WeatherDisplay:10.37,2013-04-02 00:04:00,
2013-04-01 20:09:00,39.8,28.2,29.66,NNE,20,6.8,13.8,63,0.00,CLR,,0.17,0.0,WeatherDisplay:10.37,2013-04-02 00:09:00,
2013-04-01 20:14:00,39.9,27.9,29.68,NNE,20,6.1,13.8,62,0.00,CLR,,0.17,0.0,WeatherDisplay:10.37,2013-04-02 00:14:00,
2013-04-01 20:19:00,39.9,27.9,29.68,NNE,20,0.9,4.6,62,0.00,CLR,,0.17,0.0,WeatherDisplay:10.37,2013-04-02 00:19:00,
2013-04-01 20:24:00,39.8,27.8,29.68,NNE,20,2.3,9.0,62,0.00,CLR,,0.17,0.0,WeatherDisplay:10.37,2013-04-02 00:24:00,
2013-04-01 20:29:00,39.6,26.0,29.69,NNE,20,15.6,26.5,58,0.00,,,0.17,0.0,WeatherDisplay:10.37,2013-04-02 00:29:00,
2013-04-01 20:34:00,39.5,25.1,29.69,NNE,20,11.7,16.1,56,0.00,CLR,,0.17,0.0,WeatherDisplay:10.37,2013-04-02 00:34:00,
2013-04-01 20:39:00,39.3,24.5,29.69,NNE,20,7.7,19.6,55,0.00,CLR,,0.17,0.0,WeatherDisplay:10.37,2013-04-02 00:39:00,
2013-04-01 20:44:00,39.2,23.5,29.69,NNE,20,3.9,13.8,53,0.00,CLR,,0.17,0.0,WeatherDisplay:10.37,2013-04-02 00:44:00,
2013-04-01 20:49:00,38.9,22.8,29.70,NNE,20,7.9,11.5,52,0.00,CLR,,0.17,0.0,WeatherDisplay:10.37,2013-04-02 00:49:00,
2013-04-01 20:54:00,38.7,22.6,29.70,NNE,20,8.5,13.8,52,0.00,CLR,,0.17,0.0,WeatherDisplay:10.37,2013-04-02 00:54:00,
2013-04-01 20:59:00,38.5,22.4,29.71,NNE,20,8.3,13.8,52,0.00,CLR,,0.17,0.0,WeatherDisplay:10.37,2013-04-02 00:59:00,
2013-04-01 21:04:00,38.3,21.7,29.71,NNE,20,8.1,16.1,51,0.00,CLR,,0.17,0.0,WeatherDisplay:10.37,2013-04-02 01:04:00,
2013-04-01 21:10:00,38.2,22.1,29.71,NNE,20,4.0,6.9,52,0.00,CLR,,0.17,0.0,WeatherDisplay:10.37,2013-04-02 01:10:00,
2013-04-01 21:15:00,38.0,21.5,29.71,NNE,20,2.4,8.1,51,0.00,CLR,,0.17,0.0,WeatherDisplay:10.37,2013-04-02 01:15:00,
2013-04-01 21:20:00,37.8,21.7,29.71,NNE,20,1.9,8.1,52,0.00,CLR,,0.17,0.0,WeatherDisplay:10.37,2013-04-02 01:20:00,
2013-04-01 21:25:00,37.7,21.2,29.71,NNE,20,6.3,8.1,51,0.00,CLR,,0.17,0.0,WeatherDisplay:10.37,2013-04-02 01:25:00,
2013-04-01 21:30:00,37.6,20.6,29.71,NNE,20,6.2,17.3,50,0.00,CLR,,0.17,0.0,WeatherDisplay:10.37,2013-04-02 01:30:00,
2013-04-01 21:35:00,37.5,20.5,29.71,NNE,20,10.9,11.5,50,0.00,CLR,,0.17,0.0,WeatherDisplay:10.37,2013-04-02 01:35:00,
2013-04-01 21:40:00,37.4,20.9,29.71,NNE,20,5.1,8.1,51,0.00,CLR,,0.17,0.0,WeatherDisplay:10.37,2013-04-02 01:40:00,
2013-04-01 21:45:00,37.3,21.3,29.72,NNE,20,1.9,3.5,52,0.00,CLR,,0.17,0.0,WeatherDisplay:10.37,2013-04-02 01:45:00,
2013-04-01 21:50:00,37.1,21.1,29.72,NNE,20,0.0,0.0,52,0.00,CLR,,0.17,0.0,WeatherDisplay:10.37,2013-04-02 01:50:00,
2013-04-01 21:55:00,36.9,20.4,29.72,NNE,20,5.4,10.4,51,0.00,CLR,,0.17,0.0,WeatherDisplay:10.37,2013-04-02 01:55:00,
2013-04-01 22:00:00,36.8,19.4,29.73,NNE,20,8.2,13.8,49,0.00,CLR,,0.17,0.0,WeatherDisplay:10.37,2013-04-02 02:00:00,
2013-04-01 22:05:00,36.8,18.4,29.73,NNE,20,7.1,13.0,47,0.00,CLR,,0.17,0.0,WeatherDisplay:10.37,2013-04-02 02:05:00,
2013-04-01 22:10:00,36.8,18.4,29.73,NNE,20,3.8,16.1,47,0.00,CLR,,0.17,0.0,WeatherDisplay:10.37,2013-04-02 02:10:00,
2013-04-01 22:15:00,36.8,17.9,29.74,NNE,20,4.6,12.7,46,0.00,CLR,,0.17,0.0,WeatherDisplay:10.37,2013-04-02 02:15:00,
2013-04-01 22:20:00,36.7,17.8,29.74,NNE,20,7.7,10.4,46,0.00,CLR,,0.17,0.0,WeatherDisplay:10.37,2013-04-02 02:20:00,
2013-04-01 22:25:00,36.6,17.7,29.74,NNE,20,13.9,19.6,46,0.00,CLR,,0.17,0.0,WeatherDisplay:10.37,2013-04-02 02:25:00,
2013-04-01 22:30:00,36.5,17.7,29.74,NNE,20,4.8,11.5,46,0.00,CLR,,0.17,0.0,WeatherDisplay:10.37,2013-04-02 02:30:00,
2013-04-01 22:35:00,36.3,18.0,29.74,NNE,20,3.4,6.0,47,0.00,CLR,,0.17,0.0,WeatherDisplay:10.37,2013-04-02 02:35:00,
2013-04-01 22:40:00,36.1,17.8,29.74,NNE,20,0.1,3.5,47,0.00,CLR,,0.17,0.0,WeatherDisplay:10.37,2013-04-02 02:40:00,
2013-04-01 22:45:00,35.9,18.1,29.74,NNE,20,5.0,11.5,48,0.00,CLR,,0.17,0.0,WeatherDisplay:10.37,2013-04-02 02:45:00,
2013-04-01 22:50:00,35.8,18.0,29.74,NNE,20,12.2,19.6,48,0.00,CLR,,0.17,0.0,WeatherDisplay:10.37,2013-04-02 02:50:00,
2013-04-01 22:55:00,35.7,17.4,29.74,NNE,20,6.7,12.7,47,0.00,CLR,,0.17,0.0,WeatherDisplay:10.37,2013-04-02 02:55:00,
2013-04-01 23:00:00,35.7,17.4,29.75,NNE,20,2.6,16.1,47,0.00,CLR,,0.17,0.0,WeatherDisplay:10.37,2013-04-02 03:00:00,
2013-04-01 23:05:00,35.6,17.3,29.75,NNE,20,3.4,10.4,47,0.00,CLR,,0.17,0.0,WeatherDisplay:10.37,2013-04-02 03:05:00,
2013-04-01 23:10:00,35.5,17.2,29.75,NNE,20,0.3,5.0,47,0.00,CLR,,0.17,0.0,WeatherDisplay:10.37,2013-04-02 03:10:00,
2013-04-01 23:15:00,35.3,17.5,29.76,NNE,20,3.9,9.0,48,0.00,CLR,,0.17,0.0,WeatherDisplay:10.37,2013-04-02 03:15:00,
2013-04-01 23:20:00,35.2,17.4,29.76,NNE,20,6.6,10.4,48,0.00,CLR,,0.17,0.0,WeatherDisplay:10.37,2013-04-02 03:20:00,
2013-04-01 23:25:00,35.0,17.7,29.76,NNE,20,4.1,6.9,49,0.00,CLR,,0.17,0.0,WeatherDisplay:10.37,2013-04-02 03:25:00,
2013-04-01 23:30:00,34.8,18.0,29.76,NNE,20,2.2,5.8,50,0.00,CLR,,0.17,0.0,WeatherDisplay:10.37,2013-04-02 03:30:00,
2013-04-01 23:35:00,34.5,17.8,29.76,NNE,20,0.7,4.6,50,0.00,CLR,,0.17,0.0,WeatherDisplay:10.37,2013-04-02 03:35:00,
2013-04-01 23:40:00,34.4,18.1,29.76,NNE,20,0.1,3.5,51,0.00,CLR,,0.17,0.0,WeatherDisplay:10.37,2013-04-02 03:40:00,
2013-04-01 23:45:00,34.4,18.1,29.76,NNE,20,1.7,5.8,51,0.00,CLR,,0.17,0.0,WeatherDisplay:10.37,2013-04-02 03:45:00,
2013-04-01 23:50:00,34.4,18.1,29.76,NNE,20,3.4,11.5,51,0.00,CLR,,0.17,0.0,WeatherDisplay:10.37,2013-04-02 03:50:00,
2013-04-01 23:55:00,34.4,18.1,29.76,NNE,20,4.5,11.5,51,0.00,CLR,,0.17,0.0,WeatherDisplay:10.37,2013-04-02 03:55:00,